Location: Arpaise
(41.0333°N, 14.7333°E)
Time: 16:19:48
(UTC+00:00)

ATLAS CENTAUR R/B - Pass Details

Date: 05 July 2020
Orbit: 475 x 672 km, 64.7° (Epoch: 13 July)

Event Time Altitude Azimuth Distance (km) Brightness Sun altitude
Rises 21:53:59 0° 317° (NW) 2,544 5.8 -24.1°
Reaches altitude 10° 21:56:18 10° 306° (NW) 1,651 4.4 -24.3°
Enters shadow 21:58:26 25° 276° (W) 1,003 2.8 -24.4°
